EW5171 Weather Reports


time (UTC)temp
F
wind
direction
speed
knots
gust
knots
rain 1hr
in
rain 24hr
in
rain mn
in
humidity
%
barometer
mb
20260503200028 53 69 0.0 0.9 0.01 0.01 0.01 93 1008.0
20260503195527 53 69 0.0 0.9 0.01 0.01 0.01 93 1007.9
20260503195026 53 69 0.0 0.0 0.01 0.01 0.01 93 1008.1
20260503194526 53 69 0.0 0.0 0.01 0.01 0.01 93 1008.2
20260503194028 53 69 0.0 0.0 0.01 0.01 0.01 92 1008.2
20260503193526 53 69 0.0 0.0 0.01 0.01 0.01 92 1008.1
20260503193033 53 69 0.0 2.6 0.01 0.01 0.01 92 1008.3
20260503192525 53 69 0.0 2.6 0.01 0.01 0.01 91 1008.3
20260503192024 53 198 0.0 0.0 0.01 0.01 0.01 91 1008.3
20260503191523 53 198 0.0 0.0 0.01 0.01 0.01 90 1008.4
20260503191023 54 198 0.0 0.0 0.01 0.01 0.01 89 1008.5
20260503190522 54 198 0.0 0.0 0.01 0.01 0.01 89 1008.6
20260503190021 54 198 0.0 0.0 0.00 0.00 0.00 89 1008.7
20260503185520 55 198 0.0 0.0 0.00 0.00 0.00 89 1008.7
20260503185021 55 198 0.0 0.0 0.00 0.00 0.00 88 1008.7
20260503184533 55 198 0.0 0.0 0.00 0.00 0.00 87 1008.8
20260503184020 55 198 0.0 0.0 0.00 0.00 0.00 87 1008.8
20260503183520 55 198 0.0 1.7 0.00 0.00 0.00 86 1008.9
20260503183021 55 198 0.0 2.6 0.00 0.00 0.00 86 1008.9
20260503182518 55 198 0.0 2.6 0.00 0.00 0.00 85 1009.0
20260503182018 56 198 0.9 2.6 0.00 0.00 0.00 85 1009.0
20260503181518 56 198 0.9 1.7 0.00 0.00 0.00 86 1009.0
20260503181019 56 198 0.0 1.7 0.00 0.00 0.00 87 1009.0
20260503180518 55 198 0.0 2.6 0.00 0.00 0.00 87 1009.0
20260503180024 55 198 0.9 2.6 0.00 0.00 0.00 87 1009.0
20260503175517 55 198 0.0 2.6 0.00 0.00 0.00 88 1009.0
20260503175017 54 198 0.9 2.6 0.00 0.00 0.00 88 1009.0
20260503174518 54 198 0.0 2.6 0.00 0.00 0.00 88 1008.9
20260503174017 54 198 0.9 2.6 0.00 0.00 0.00 89 1009.0
20260503173517 54 200 0.0 3.5 0.00 0.00 0.00 88 1009.0
20260503173017 54 192 0.9 3.5 0.00 0.00 0.00 88 1009.0
20260503172515 54 181 0.9 4.3 0.00 0.00 0.00 88 1009.0
20260503172015 54 208 1.7 4.3 0.00 0.00 0.00 87 1009.1
20260503171514 55 187 0.9 3.5 0.00 0.00 0.00 87 1009.1
20260503171017 55 180 0.9 4.3 0.00 0.00 0.00 87 1009.1
20260503170514 55 159 0.9 5.2 0.00 0.00 0.00 87 1009.1
20260503151006 60 155 5.2 9.6 0.00 0.00 0.00 76 1009.6
20260503150503 60 155 3.5 8.7 0.00 0.00 0.00 77 1009.6
20260503131051 57 139 0.9 6.1 0.00 0.00 0.00 82 1010.6
20260503130549 57 194 2.6 6.1 0.00 0.00 0.00 83 1010.6
20260503110543 60 184 2.6 7.0 0.00 0.00 0.00 74 1011.1
20260503081529 55 242 0.9 7.0 0.00 0.00 0.00 83 1011.4
20260503081029 55 213 1.7 4.3 0.00 0.00 0.00 83 1011.4
20260503080529 55 191 0.9 5.2 0.00 0.00 0.00 85 1011.4
20260503072526 54 255 2.6 6.1 0.00 0.00 0.00 86 1011.3
20260503072026 54 219 2.6 8.7 0.00 0.00 0.00 87 1011.4
20260503071525 54 331 1.7 8.7 0.00 0.00 0.00 87 1011.4
20260503071024 54 322 1.7 6.1 0.00 0.00 0.00 88 1011.2
20260503070525 53 215 0.9 7.8 0.00 0.00 0.00 88 1011.2
20260503055021 53 306 0.9 6.1 0.00 0.00 0.00 91 1010.9
20260503054526 53 209 2.6 6.1 0.00 0.00 0.00 92 1010.9
20260503054023 53 271 0.9 6.1 0.00 0.00 0.00 92 1010.9
20260503053520 53 293 1.7 5.2 0.00 0.00 0.00 93 1010.7
20260503053022 53 234 0.9 4.3 0.00 0.00 0.00 93 1010.7
20260503052521 52 205 0.0 4.3 0.00 0.00 0.00 94 1010.7
20260503052016 52 163 0.0 4.3 0.00 0.00 0.00 94 1010.6
20260503051614 52 217 0.9 3.5 0.00 0.00 0.00 94 1010.8
20260503051014 52 223 0.9 3.5 0.00 0.00 0.00 94 1010.8
20260503050514 51 231 0.9 3.5 0.00 0.00 0.00 95 1010.9
20260503050013 51 310 0.9 3.5 0.00 0.00 0.00 95 1010.9
20260503045511 51 255 0.9 4.3 0.00 0.00 0.00 95 1011.0
20260503045011 51 292 0.9 4.3 0.00 0.00 0.00 95 1011.1
20260503044511 50 247 0.9 3.5 0.00 0.00 0.00 95 1011.0
20260503044010 50 239 0.9 3.5 0.00 0.00 0.00 95 1011.0
20260503043510 50 234 0.9 4.3 0.00 0.00 0.00 95 1011.1
20260503043010 49 243 0.0 2.6 0.00 0.00 0.00 94 1011.1
20260503042509 49 219 0.9 2.6 0.00 0.00 0.00 94 1011.2
20260503042009 49 219 0.0 2.6 0.00 0.00 0.00 94 1011.1
20260503041511 48 296 0.0 0.9 0.00 0.00 0.00 93 1011.1
20260503041010 48 296 0.0 1.7 0.00 0.00 0.00 93 1011.1
20260503040507 48 296 0.0 1.7 0.00 0.00 0.00 93 1011.0
20260503040005 48 296 0.0 0.9 0.00 0.00 0.00 93 1011.2
20260503035508 48 296 0.0 0.9 0.00 0.00 0.00 93 1011.1
20260503035003 48 296 0.0 0.9 0.00 0.00 0.00 92 1011.2
20260503034507 49 296 0.0 0.9 0.00 0.00 0.00 92 1011.2
20260503034002 49 296 0.0 0.9 0.00 0.00 0.00 92 1011.1
20260503033600 49 296 0.0 0.9 0.00 0.00 0.00 92 1011.0
20260503033102 49 296 0.0 0.9 0.00 0.00 0.00 93 1010.9
20260503032559 50 296 0.0 0.9 0.00 0.00 0.00 93 1010.8
20260503032058 50 296 0.0 0.9 0.00 0.00 0.00 92 1010.8
20260503031557 50 296 0.0 1.7 0.00 0.00 0.00 93 1010.9
20260503031058 50 296 0.0 3.5 0.00 0.00 0.00 93 1010.9
20260503030558 50 285 0.0 3.5 0.00 0.00 0.00 93 1011.0
20260503030058 50 294 0.0 3.5 0.00 0.00 0.00 93 1010.9
20260503025555 50 294 0.0 3.5 0.00 0.00 0.00 93 1011.0
20260503025055 50 221 0.9 3.5 0.00 0.00 0.00 93 1011.0
20260503024555 50 272 0.0 5.2 0.00 0.00 0.00 93 1011.1
20260503024056 50 230 0.9 5.2 0.00 0.00 0.00 93 1011.1
20260503023555 50 244 0.0 3.5 0.00 0.00 0.00 93 1011.2
20260503023054 50 229 0.0 3.5 0.00 0.00 0.00 92 1011.3
20260503022553 51 211 0.9 3.5 0.00 0.00 0.00 92 1011.2
20260503022052 51 222 0.9 6.1 0.00 0.00 0.00 93 1011.2
20260503021551 51 193 1.7 6.1 0.00 0.00 0.00 93 1011.3
20260503021051 51 219 0.9 4.3 0.00 0.00 0.00 93 1011.3
20260503020552 51 278 0.9 4.3 0.00 0.00 0.00 93 1011.2
20260503020050 51 304 0.9 7.8 0.00 0.00 0.00 93 1011.2
20260503015551 51 277 1.7 7.8 0.00 0.00 0.00 93 1011.2
20260503015049 51 281 0.9 3.5 0.00 0.00 0.00 93 1011.2
20260503014558 51 254 0.0 2.6 0.00 0.00 0.00 93 1011.2
20260503014049 51 296 0.9 2.6 0.00 0.00 0.00 93 1011.1
20260503013549 51 261 0.0 3.5 0.00 0.00 0.00 93 1011.1
20260503013049 51 271 0.9 3.5 0.00 0.00 0.00 93 1011.2
20260503012550 51 182 0.9 3.5 0.00 0.00 0.00 92 1011.1
20260503012047 51 296 0.0 2.6 0.00 0.00 0.00 92 1011.0
20260503011546 51 291 0.0 2.6 0.00 0.00 0.00 92 1011.0
20260503011047 52 291 0.9 4.3 0.00 0.00 0.00 92 1011.0
20260503010546 51 237 0.9 4.3 0.00 0.00 0.00 92 1011.1
20260503010047 51 190 0.0 2.6 0.00 0.00 0.00 92 1011.1
20260503005546 51 280 0.0 1.7 0.00 0.00 0.00 92 1011.0
20260503005048 51 225 0.0 1.7 0.00 0.00 0.00 91 1010.9
20260503004546 51 225 0.0 1.7 0.00 0.00 0.00 91 1010.9
20260503004045 52 225 0.0 1.7 0.00 0.00 0.00 91 1010.9
20260503003544 52 225 0.0 1.7 0.00 0.00 0.00 91 1011.0
20260503003043 52 176 0.0 1.7 0.00 0.00 0.00 91 1011.0
20260503002544 52 249 0.0 1.7 0.00 0.00 0.00 91 1011.1
20260503002043 52 249 0.0 1.7 0.00 0.00 0.00 90 1011.0
20260503001542 51 249 0.0 1.7 0.00 0.00 0.00 90 1011.0
20260503001042 51 249 0.0 0.9 0.00 0.00 0.00 89 1011.0
20260503000540 51 249 0.0 1.7 0.00 0.00 0.00 89 1011.1
20260503000040 51 249 0.0 1.7 0.00 0.00 0.00 88 1011.1
20260502235539 51 249 0.0 0.9 0.00 0.00 0.00 87 1011.1
20260502235038 52 249 0.0 0.9 0.00 0.00 0.00 87 1011.2
20260502234538 52 249 0.0 0.9 0.00 0.00 0.00 86 1011.2
20260502234038 52 249 0.0 0.9 0.00 0.00 0.00 85 1011.3
20260502233536 52 249 0.0 0.9 0.00 0.00 0.00 84 1011.2
20260502233037 52 249 0.0 0.0 0.00 0.00 0.00 83 1011.2
20260502232533 53 249 0.0 0.9 0.00 0.00 0.00 82 1011.2
20260502232032 53 249 0.0 0.9 0.00 0.00 0.00 82 1011.2
20260502231533 53 249 0.0 0.9 0.00 0.00 0.00 81 1011.4
20260502231032 54 249 0.0 0.0 0.00 0.00 0.00 80 1011.4
20260502230529 54 249 0.0 0.0 0.00 0.00 0.00 78 1011.4
20260502230027 54 249 0.0 0.0 0.00 0.00 0.00 77 1011.4
20260502225526 55 249 0.0 0.9 0.00 0.00 0.00 76 1011.4
20260502225024 55 249 0.0 0.9 0.00 0.00 0.00 76 1011.4
20260502224524 56 249 0.0 0.9 0.00 0.00 0.00 76 1011.5
20260502224023 56 249 0.0 0.9 0.00 0.00 0.00 75 1011.5
20260502223524 56 249 0.0 0.9 0.00 0.00 0.00 74 1011.6
20260502223021 57 249 0.0 0.9 0.00 0.00 0.00 72 1011.5
20260502222520 57 249 0.0 0.0 0.00 0.00 0.00 72 1011.5
20260502222018 58 249 0.0 0.9 0.00 0.00 0.00 71 1011.4
20260502221516 58 249 0.0 1.7 0.00 0.00 0.00 71 1011.5
20260502221015 58 249 0.0 1.7 0.00 0.00 0.00 70 1011.5
20260502220515 59 249 0.0 0.0 0.00 0.00 0.00 70 1011.4
20260502220013 59 249 0.0 0.9 0.00 0.00 0.00 69 1011.5
20260502215512 59 249 0.0 3.5 0.00 0.00 0.00 69 1011.4
20260502215012 59 249 0.0 3.5 0.00 0.00 0.00 68 1011.5
20260502214515 60 184 0.0 1.7 0.00 0.00 0.00 67 1011.6
20260502214012 60 184 0.0 2.6 0.00 0.00 0.00 66 1011.7
20260502213611 60 239 0.0 2.6 0.00 0.00 0.00 66 1011.7
20260502213012 60 291 0.0 0.9 0.00 0.00 0.00 65 1011.7
20260502212511 61 280 0.0 0.9 0.00 0.00 0.00 64 1011.7
20260502212017 61 280 0.0 0.9 0.00 0.00 0.00 64 1011.8
20260502211523 61 280 0.0 0.9 0.00 0.00 0.00 64 1011.8
20260502211009 61 280 0.0 0.9 0.00 0.00 0.00 63 1011.7
20260502210510 61 280 0.0 0.9 0.00 0.00 0.00 63 1011.7
20260502210009 61 280 0.0 1.7 0.00 0.00 0.00 63 1011.7
20260502205510 61 280 0.0 1.7 0.00 0.00 0.00 62 1011.7
20260502205010 62 280 0.0 1.7 0.00 0.00 0.00 61 1011.7
20260502204510 62 280 0.0 1.7 0.00 0.00 0.00 61 1011.7
20260502204012 62 280 0.0 1.7 0.00 0.00 0.00 61 1011.8
20260502203511 62 280 0.0 0.0 0.00 0.00 0.00 62 1011.7
20260502203009 62 280 0.0 0.9 0.00 0.00 0.00 62 1011.7
20260502202509 62 280 0.0 0.9 0.00 0.00 0.00 62 1011.7
20260502202009 62 280 0.0 0.0 0.00 0.00 0.00 62 1011.8
20260502201507 62 280 0.0 0.9 0.00 0.00 0.00 61 1011.8
20260502201009 62 280 0.0 1.7 0.00 0.00 0.00 60 1011.8
20260502200508 63 280 0.0 1.7 0.00 0.00 0.00 59 1011.8